TimeEST,TemperatureF,Dew PointF,Humidity,Sea Level PressureIn,VisibilityMPH,Wind Direction,Wind SpeedMPH,Gust SpeedMPH,PrecipitationIn,Events,Conditions,WindDirDegrees,DateUTC
12:11 AM,35.6,30.2,81,30.25,10.0,NW,4.6,-,N/A,,Mostly Cloudy,320,2013-03-08 05:11:00
12:31 AM,35.6,28.4,75,30.25,10.0,NNW,9.2,16.1,N/A,,Mostly Cloudy,330,2013-03-08 05:31:00
12:51 AM,35.6,28.4,75,30.25,10.0,NNW,11.5,-,N/A,,Overcast,330,2013-03-08 05:51:00
1:11 AM,35.6,26.6,70,30.25,10.0,NNW,16.1,21.9,N/A,,Overcast,340,2013-03-08 06:11:00
1:31 AM,35.6,26.6,70,30.26,10.0,NNW,12.7,19.6,N/A,,Overcast,340,2013-03-08 06:31:00
1:51 AM,35.6,26.6,70,30.26,10.0,North,11.5,24.2,N/A,,Overcast,350,2013-03-08 06:51:00
2:11 AM,35.6,26.6,70,30.26,10.0,NNW,6.9,-,N/A,,Overcast,340,2013-03-08 07:11:00
2:31 AM,35.6,26.6,70,30.25,10.0,NW,13.8,20.7,N/A,,Overcast,320,2013-03-08 07:31:00
2:51 AM,33.8,26.6,75,30.25,10.0,NNW,10.4,-,N/A,,Mostly Cloudy,340,2013-03-08 07:51:00
3:11 AM,33.8,26.6,75,30.25,10.0,WNW,6.9,-,N/A,,Overcast,290,2013-03-08 08:11:00
3:31 AM,35.6,26.6,70,30.25,10.0,NW,8.1,-,N/A,,Overcast,320,2013-03-08 08:31:00
3:51 AM,35.6,26.6,70,30.25,10.0,NW,5.8,-,N/A,,Overcast,320,2013-03-08 08:51:00
4:11 AM,33.8,26.6,75,30.25,10.0,NNW,12.7,17.3,N/A,,Overcast,330,2013-03-08 09:11:00
4:31 AM,33.8,26.6,75,30.26,10.0,NNW,9.2,18.4,N/A,,Overcast,340,2013-03-08 09:31:00
4:51 AM,33.8,26.6,75,30.27,10.0,NW,6.9,16.1,N/A,,Mostly Cloudy,310,2013-03-08 09:51:00
5:11 AM,33.8,28.4,81,30.27,10.0,NNW,11.5,-,N/A,,Overcast,330,2013-03-08 10:11:00
5:31 AM,33.8,28.4,81,30.28,10.0,NW,11.5,19.6,N/A,,Overcast,320,2013-03-08 10:31:00
5:51 AM,33.8,28.4,81,30.27,10.0,NNW,9.2,20.7,N/A,,Mostly Cloudy,330,2013-03-08 10:51:00
6:11 AM,33.8,26.6,75,30.28,10.0,NNW,11.5,16.1,N/A,,Overcast,340,2013-03-08 11:11:00
6:31 AM,33.8,26.6,75,30.28,10.0,NNW,9.2,-,N/A,,Overcast,340,2013-03-08 11:31:00
6:51 AM,33.8,26.6,75,30.29,10.0,NW,10.4,18.4,N/A,,Overcast,320,2013-03-08 11:51:00
7:11 AM,33.8,26.6,75,30.30,10.0,NNW,15.0,25.3,N/A,,Mostly Cloudy,330,2013-03-08 12:11:00
7:31 AM,33.8,26.6,75,30.30,10.0,NNW,17.3,26.5,N/A,,Mostly Cloudy,330,2013-03-08 12:31:00
7:52 AM,33.8,26.6,75,30.30,10.0,NNW,15.0,24.2,N/A,,Mostly Cloudy,340,2013-03-08 12:52:00
8:12 AM,33.8,26.6,75,30.31,10.0,NNW,11.5,26.5,N/A,,Mostly Cloudy,330,2013-03-08 13:12:00
8:32 AM,33.8,26.6,75,30.31,10.0,NNW,13.8,24.2,N/A,,Mostly Cloudy,340,2013-03-08 13:32:00
8:52 AM,35.6,28.4,75,30.31,10.0,NNW,10.4,19.6,N/A,,Mostly Cloudy,330,2013-03-08 13:52:00
9:12 AM,35.6,26.6,70,30.32,10.0,NNW,13.8,23.0,N/A,,Mostly Cloudy,330,2013-03-08 14:12:00
9:32 AM,35.6,26.6,70,30.32,10.0,NW,11.5,-,N/A,,Mostly Cloudy,320,2013-03-08 14:32:00
9:52 AM,35.6,28.4,75,30.32,10.0,NW,15.0,21.9,N/A,,Overcast,320,2013-03-08 14:52:00
10:12 AM,35.6,26.6,70,30.32,10.0,North,9.2,23.0,N/A,,Overcast,350,2013-03-08 15:12:00
10:32 AM,35.6,26.6,70,30.33,10.0,NNW,12.7,23.0,N/A,,Overcast,330,2013-03-08 15:32:00
10:52 AM,35.6,26.6,70,30.33,10.0,NNW,12.7,23.0,N/A,,Overcast,330,2013-03-08 15:52:00
11:12 AM,35.6,26.6,70,30.33,10.0,NNW,12.7,21.9,N/A,,Overcast,330,2013-03-08 16:12:00
11:32 AM,35.6,26.6,70,30.33,10.0,NNW,10.4,21.9,N/A,,Overcast,330,2013-03-08 16:32:00
11:52 AM,37.4,28.4,70,30.33,10.0,North,10.4,17.3,N/A,,Overcast,350,2013-03-08 16:52:00
12:12 PM,37.4,28.4,70,30.33,10.0,NW,9.2,16.1,N/A,,Overcast,320,2013-03-08 17:12:00
12:32 PM,37.4,28.4,70,30.32,10.0,NNW,17.3,26.5,N/A,,Overcast,330,2013-03-08 17:32:00
12:52 PM,37.4,28.4,70,30.32,10.0,NW,11.5,24.2,N/A,,Overcast,320,2013-03-08 17:52:00
1:12 PM,37.4,28.4,70,30.32,10.0,NW,16.1,23.0,N/A,,Overcast,320,2013-03-08 18:12:00
1:32 PM,37.4,28.4,70,30.31,10.0,NNW,13.8,19.6,N/A,,Overcast,340,2013-03-08 18:32:00
1:52 PM,41.0,28.4,61,30.30,10.0,NNW,13.8,24.2,N/A,,Mostly Cloudy,330,2013-03-08 18:52:00
2:12 PM,41.0,30.2,65,30.30,10.0,NW,16.1,25.3,N/A,,Scattered Clouds,320,2013-03-08 19:12:00
2:32 PM,41.0,30.2,65,30.30,10.0,NNW,13.8,20.7,N/A,,Scattered Clouds,330,2013-03-08 19:32:00
2:52 PM,41.0,30.2,65,30.30,10.0,NW,15.0,26.5,N/A,,Scattered Clouds,310,2013-03-08 19:52:00
3:12 PM,41.0,30.2,65,30.30,10.0,NNW,20.7,26.5,N/A,,Clear,340,2013-03-08 20:12:00
3:32 PM,41.0,28.4,61,30.30,10.0,NNW,16.1,26.5,N/A,,Clear,330,2013-03-08 20:32:00
3:53 PM,41.0,28.4,61,30.30,10.0,NNW,18.4,26.5,N/A,,Clear,340,2013-03-08 20:53:00
4:13 PM,41.0,30.2,65,30.32,10.0,NW,18.4,23.0,N/A,,Clear,320,2013-03-08 21:13:00
4:33 PM,41.0,28.4,61,30.31,10.0,NNW,18.4,25.3,N/A,,Clear,330,2013-03-08 21:33:00
4:53 PM,41.0,28.4,61,30.32,10.0,NNW,9.2,17.3,N/A,,Clear,330,2013-03-08 21:53:00
5:13 PM,41.0,28.4,61,30.33,10.0,NW,9.2,18.4,N/A,,Clear,320,2013-03-08 22:13:00
5:33 PM,39.2,28.4,65,30.33,10.0,NNW,11.5,19.6,N/A,,Clear,340,2013-03-08 22:33:00
5:53 PM,39.2,28.4,65,30.35,10.0,NW,9.2,-,N/A,,Clear,310,2013-03-08 22:53:00
6:13 PM,37.4,28.4,70,30.35,10.0,NW,6.9,-,N/A,,Clear,320,2013-03-08 23:13:00
6:33 PM,37.4,28.4,70,30.35,10.0,NNW,9.2,-,N/A,,Clear,330,2013-03-08 23:33:00
6:53 PM,37.4,28.4,70,30.37,10.0,NNW,9.2,16.1,N/A,,Clear,330,2013-03-08 23:53:00
7:13 PM,37.4,28.4,70,30.37,10.0,North,3.5,-,N/A,,Clear,350,2013-03-09 00:13:00
7:33 PM,37.4,28.4,70,30.38,10.0,North,4.6,-,N/A,,Clear,350,2013-03-09 00:33:00
7:53 PM,35.6,28.4,75,30.38,10.0,North,5.8,-,N/A,,Clear,350,2013-03-09 00:53:00
8:13 PM,35.6,28.4,75,30.39,10.0,NNW,3.5,-,N/A,,Clear,340,2013-03-09 01:13:00
8:33 PM,35.6,28.4,75,30.39,10.0,NNE,3.5,-,N/A,,Clear,20,2013-03-09 01:33:00
8:53 PM,33.8,28.4,81,30.40,10.0,Calm,Calm,-,N/A,,Clear,0,2013-03-09 01:53:00
9:13 PM,33.8,28.4,81,30.40,10.0,Calm,Calm,-,N/A,,Clear,0,2013-03-09 02:13:00
9:33 PM,33.8,28.4,81,30.40,10.0,Calm,Calm,-,N/A,,Clear,0,2013-03-09 02:33:00
9:53 PM,33.8,28.4,81,30.39,10.0,North,4.6,-,N/A,,Clear,360,2013-03-09 02:53:00
10:13 PM,33.8,28.4,81,30.38,10.0,NNW,8.1,-,N/A,,Clear,340,2013-03-09 03:13:00
10:33 PM,35.6,28.4,75,30.38,10.0,North,6.9,-,N/A,,Clear,360,2013-03-09 03:33:00
10:53 PM,33.8,28.4,81,30.38,10.0,North,3.5,-,N/A,,Clear,350,2013-03-09 03:53:00
11:13 PM,33.8,28.4,81,30.38,10.0,Calm,Calm,-,N/A,,Clear,0,2013-03-09 04:13:00
11:33 PM,33.8,28.4,81,30.38,10.0,NE,3.5,-,N/A,,Clear,50,2013-03-09 04:33:00
11:53 PM,33.8,28.4,81,30.38,10.0,Calm,Calm,-,N/A,,Clear,0,2013-03-09 04:53:00